| time (UTC) | temp F | wind direction | speed knots | gust knots | rain 1hr in | rain 24hr in | rain mn in | humidity % | barometer mb |
| 20260505140200 | 48 | 333 | 0.9 | 1.7 | 0.12 | 0.52 | 0.52 | 89 | 1012.1 |
| 20260505130123 | 49 | 334 | 0.0 | 0.9 | 0.00 | 0.44 | 0.44 | 82 | 1012.0 |
| 20260505124613 | 49 | 16 | 0.0 | 0.0 | 0.07 | 0.44 | 0.44 | 81 | 1010.0 |
| 20260505124109 | 49 | 99 | 1.7 | 1.7 | 0.07 | 0.44 | 0.44 | 80 | 1010.1 |
| 20260505123605 | 49 | 40 | 0.0 | 0.0 | 0.00 | 0.43 | 0.43 | 80 | 1009.8 |
| 20260505123102 | 49 | 27 | 0.0 | 0.9 | 0.07 | 0.43 | 0.43 | 79 | 1009.4 |
| 20260505122559 | 50 | 54 | 0.9 | 0.9 | 0.12 | 0.43 | 0.43 | 79 | 1009.3 |
| 20260505122056 | 50 | 98 | 1.7 | 3.5 | 0.05 | 0.42 | 0.42 | 77 | 1009.6 |
| 20260505121552 | 50 | 59 | 1.7 | 1.7 | 0.00 | 0.41 | 0.41 | 75 | 1010.3 |
| 20260505121049 | 50 | 356 | 0.0 | 0.0 | 0.00 | 0.41 | 0.41 | 75 | 1010.5 |
| 20260505120546 | 50 | 19 | 0.0 | 0.9 | 0.00 | 0.41 | 0.41 | 74 | 1009.8 |
| 20260505120041 | 50 | 12 | 0.9 | 0.9 | 0.00 | 0.41 | 0.41 | 73 | 1009.7 |
| 20260505115536 | 50 | 22 | 0.0 | 0.9 | 0.00 | 0.41 | 0.41 | 73 | 1009.4 |
| 20260505115034 | 50 | 24 | 0.9 | 1.7 | 0.07 | 0.41 | 0.41 | 74 | 1009.2 |
| 20260505114531 | 50 | 73 | 0.9 | 2.6 | 0.07 | 0.41 | 0.41 | 74 | 1009.2 |
| 20260505114027 | 50 | 39 | 0.0 | 0.9 | 0.00 | 0.40 | 0.40 | 74 | 1009.6 |
| 20260505113523 | 50 | 34 | 0.0 | 0.0 | 0.00 | 0.40 | 0.40 | 74 | 1009.5 |
| 20260505113020 | 50 | 258 | 0.0 | 0.9 | 0.00 | 0.40 | 0.40 | 72 | 1009.5 |
| 20260505112516 | 51 | 1 | 0.0 | 0.9 | 0.00 | 0.40 | 0.40 | 72 | 1009.2 |
| 20260505112015 | 50 | 49 | 1.7 | 1.7 | 0.00 | 0.40 | 0.40 | 73 | 1009.4 |
| 20260505111514 | 50 | 270 | 1.7 | 1.7 | 0.00 | 0.40 | 0.40 | 73 | 1009.4 |
| 20260505111010 | 50 | 342 | 0.0 | 0.0 | 0.00 | 0.40 | 0.40 | 77 | 1009.1 |
| 20260505110507 | 50 | 356 | 0.0 | 0.0 | 0.00 | 0.40 | 0.40 | 77 | 1009.4 |
| 20260505101939 | 50 | 61 | 0.9 | 1.7 | 0.07 | 0.39 | 0.39 | 78 | 1009.1 |
| 20260505101438 | 50 | 18 | 0.0 | 0.9 | 0.00 | 0.38 | 0.38 | 77 | 1009.2 |
| 20260505100934 | 50 | 30 | 0.9 | 0.9 | 0.00 | 0.38 | 0.38 | 76 | 1009.2 |
| 20260505100431 | 50 | 21 | 0.9 | 0.9 | 0.00 | 0.38 | 0.38 | 75 | 1009.2 |
| 20260505095927 | 50 | 298 | 0.0 | 0.9 | 0.00 | 0.38 | 0.38 | 74 | 1009.1 |
| 20260505095424 | 50 | 357 | 0.0 | 0.0 | 0.00 | 0.38 | 0.38 | 75 | 1009.3 |
| 20260505094920 | 50 | 336 | 0.0 | 0.0 | 0.00 | 0.38 | 0.38 | 74 | 1009.1 |
| 20260505094417 | 50 | 20 | 0.0 | 0.9 | 0.00 | 0.38 | 0.38 | 73 | 1009.1 |
| 20260505093913 | 50 | 1 | 0.0 | 0.9 | 0.00 | 0.38 | 0.38 | 73 | 1009.1 |
| 20260505093410 | 50 | 29 | 0.9 | 0.9 | 0.00 | 0.38 | 0.38 | 75 | 1009.2 |
| 20260505092907 | 50 | 347 | 0.0 | 0.0 | 0.00 | 0.38 | 0.38 | 74 | 1009.2 |
| 20260505092405 | 50 | 23 | 0.9 | 0.9 | 0.00 | 0.38 | 0.38 | 75 | 1009.0 |
| 20260505091902 | 50 | 33 | 0.9 | 0.9 | 0.00 | 0.38 | 0.38 | 76 | 1008.6 |
| 20260505091400 | 50 | 348 | 1.7 | 1.7 | 0.00 | 0.38 | 0.38 | 74 | 1008.6 |
| 20260505090858 | 50 | 16 | 0.9 | 0.9 | 0.00 | 0.38 | 0.38 | 75 | 1008.5 |
| 20260505090356 | 50 | 7 | 1.7 | 1.7 | 0.00 | 0.38 | 0.38 | 75 | 1008.1 |
| 20260505085853 | 50 | 41 | 1.7 | 2.6 | 0.00 | 0.38 | 0.38 | 76 | 1007.9 |
| 20260505085351 | 50 | 227 | 0.0 | 0.9 | 0.00 | 0.38 | 0.38 | 76 | 1007.7 |
| 20260505084849 | 50 | 65 | 0.9 | 0.9 | 0.00 | 0.38 | 0.38 | 78 | 1007.6 |
| 20260505084347 | 49 | 40 | 1.7 | 2.6 | 0.00 | 0.38 | 0.38 | 80 | 1007.7 |
| 20260505083844 | 49 | 347 | 0.9 | 1.7 | 0.00 | 0.38 | 0.38 | 81 | 1007.1 |
| 20260505083341 | 49 | 21 | 0.9 | 1.7 | 0.00 | 0.38 | 0.38 | 82 | 1007.0 |
| 20260505082837 | 49 | 351 | 0.0 | 0.9 | 0.00 | 0.38 | 0.38 | 83 | 1006.8 |
| 20260505082334 | 49 | 349 | 0.9 | 0.9 | 0.00 | 0.38 | 0.38 | 84 | 1007.0 |
| 20260505081830 | 49 | 343 | 2.6 | 3.5 | 0.00 | 0.38 | 0.38 | 84 | 1006.9 |
| 20260505081327 | 50 | 11 | 2.6 | 6.1 | 0.24 | 0.38 | 0.38 | 85 | 1006.6 |
| 20260505080824 | 50 | 38 | 1.7 | 2.6 | 0.40 | 0.38 | 0.38 | 86 | 1006.0 |
| 20260505080320 | 50 | 38 | 1.7 | 2.6 | 0.38 | 0.35 | 0.35 | 83 | 1005.8 |
| 20260505075815 | 51 | 15 | 1.7 | 1.7 | 0.31 | 0.32 | 0.32 | 82 | 1007.6 |
| 20260505075313 | 51 | 20 | 0.0 | 0.9 | 0.28 | 0.29 | 0.29 | 80 | 1008.3 |
| 20260505074810 | 51 | 333 | 0.0 | 0.9 | 0.28 | 0.27 | 0.27 | 81 | 1008.6 |
| 20260505074307 | 51 | 19 | 0.9 | 1.7 | 0.24 | 0.24 | 0.24 | 79 | 1009.3 |
| 20260505073804 | 52 | 335 | 0.0 | 0.0 | 0.26 | 0.22 | 0.22 | 81 | 1009.6 |
| 20260505073302 | 52 | 331 | 0.0 | 0.0 | 0.26 | 0.20 | 0.20 | 78 | 1009.1 |
| 20260505072759 | 52 | 350 | 1.7 | 2.6 | 0.24 | 0.18 | 0.18 | 77 | 1009.2 |
| 20260505072255 | 53 | 326 | 0.9 | 0.9 | 0.17 | 0.16 | 0.16 | 79 | 1009.3 |
| 20260505071751 | 53 | 326 | 0.0 | 0.9 | 0.12 | 0.14 | 0.14 | 79 | 1009.8 |
| 20260505071247 | 54 | 317 | 0.9 | 0.9 | 0.12 | 0.13 | 0.13 | 76 | 1009.3 |
| 20260505070745 | 55 | 308 | 0.9 | 1.7 | 0.05 | 0.12 | 0.12 | 72 | 1008.5 |
| 20260505070241 | 55 | 10 | 0.0 | 0.9 | 0.00 | 0.11 | 0.11 | 69 | 1007.5 |
| 20260505065737 | 56 | 327 | 0.9 | 0.9 | 0.07 | 0.11 | 0.11 | 68 | 1007.9 |
| 20260505065234 | 57 | 332 | 0.0 | 0.9 | 0.07 | 0.11 | 0.11 | 65 | 1007.6 |
| 20260505064731 | 57 | 345 | 0.0 | 0.0 | 0.00 | 0.10 | 0.10 | 69 | 1007.5 |
| 20260505064229 | 57 | 325 | 0.0 | 0.9 | 0.00 | 0.10 | 0.10 | 67 | 1007.5 |
| 20260505063726 | 58 | 247 | 3.5 | 7.0 | 0.00 | 0.10 | 0.10 | 67 | 1007.1 |
| 20260505063222 | 57 | 14 | 0.9 | 0.9 | 0.00 | 0.10 | 0.10 | 71 | 1007.1 |
| 20260505062719 | 57 | 322 | 0.0 | 0.0 | 0.12 | 0.10 | 0.10 | 83 | 1006.9 |
| 20260505062217 | 58 | 327 | 0.0 | 0.0 | 0.17 | 0.10 | 0.10 | 82 | 1007.2 |
| 20260505061713 | 58 | 329 | 0.0 | 0.0 | 0.12 | 0.08 | 0.08 | 79 | 1006.4 |
| 20260505061211 | 58 | 354 | 0.0 | 0.0 | 0.07 | 0.07 | 0.07 | 81 | 1006.7 |
| 20260505060708 | 58 | 352 | 0.0 | 0.0 | 0.07 | 0.06 | 0.06 | 78 | 1006.6 |
| 20260505060205 | 59 | 309 | 0.0 | 0.9 | 0.19 | 0.06 | 0.06 | 77 | 1006.2 |
| 20260505055700 | 60 | 287 | 0.9 | 0.9 | 0.24 | 0.05 | 0.05 | 72 | 1006.2 |
| 20260505055157 | 62 | 344 | 0.9 | 1.7 | 0.17 | 0.03 | 0.03 | 67 | 1005.6 |
| 20260505054654 | 63 | 17 | 0.0 | 1.7 | 0.12 | 0.02 | 0.02 | 62 | 1005.5 |
| 20260505054152 | 64 | 311 | 1.7 | 2.6 | 0.00 | 0.00 | 0.00 | 55 | 1005.0 |
| 20260505053650 | 65 | 25 | 0.0 | 0.9 | 0.00 | 0.00 | 0.00 | 53 | 1005.1 |
| 20260505053146 | 65 | 15 | 0.9 | 1.7 | 0.00 | 0.00 | 0.00 | 51 | 1005.2 |
| 20260505052643 | 66 | 359 | 0.9 | 1.7 | 0.00 | 0.00 | 0.00 | 55 | 1005.4 |
| 20260505052140 | 66 | 354 | 2.6 | 5.2 | 0.00 | 0.00 | 0.00 | 54 | 1005.2 |
| 20260505051637 | 67 | 35 | 0.9 | 1.7 | 0.00 | 0.00 | 0.00 | 51 | 1005.4 |
| 20260505051136 | 69 | 348 | 1.7 | 3.5 | 0.00 | 0.00 | 0.00 | 44 | 1004.8 |
| 20260505050633 | 70 | 250 | 2.6 | 3.5 | 0.00 | 0.00 | 0.00 | 39 | 1004.7 |
| 20260505050131 | 70 | 11 | 2.6 | 3.5 | 0.00 | 0.00 | 0.00 | 43 | 1004.6 |
| 20260505041601 | 71 | 282 | 0.9 | 0.9 | 0.00 | 0.00 | 0.00 | 66 | 1003.6 |
| 20260505041058 | 71 | 11 | 0.0 | 0.9 | 0.00 | 0.00 | 0.00 | 66 | 1003.6 |
| 20260505040555 | 71 | 327 | 0.0 | 0.0 | 0.00 | 0.00 | 0.00 | 66 | 1003.6 |
| 20260505040052 | 71 | 172 | 1.7 | 2.6 | 0.00 | 0.00 | 0.00 | 66 | 1003.8 |
| 20260505035548 | 71 | 221 | 0.0 | 0.9 | 0.00 | 0.00 | 0.00 | 66 | 1003.8 |
| 20260505035045 | 71 | 11 | 0.0 | 0.9 | 0.00 | 0.00 | 0.00 | 66 | 1003.8 |
| 20260505034541 | 71 | 75 | 0.9 | 0.9 | 0.00 | 0.00 | 0.00 | 66 | 1003.9 |
| 20260505034038 | 71 | 340 | 0.0 | 0.0 | 0.00 | 0.00 | 0.00 | 66 | 1003.6 |
| 20260505033536 | 71 | 351 | 0.0 | 0.0 | 0.00 | 0.00 | 0.00 | 66 | 1003.9 |
| 20260505033034 | 71 | 23 | 0.9 | 1.7 | 0.00 | 0.00 | 0.00 | 66 | 1003.9 |
| 20260505032531 | 72 | 333 | 0.0 | 0.0 | 0.00 | 0.00 | 0.00 | 65 | 1003.9 |
| 20260505032027 | 72 | 284 | 1.7 | 1.7 | 0.00 | 0.00 | 0.00 | 64 | 1003.9 |
| 20260505031525 | 72 | 315 | 0.9 | 0.9 | 0.00 | 0.00 | 0.00 | 63 | 1003.7 |
| 20260505031021 | 72 | 354 | 0.0 | 0.0 | 0.00 | 0.00 | 0.00 | 63 | 1003.8 |
| 20260505030518 | 72 | 167 | 0.0 | 0.0 | 0.00 | 0.00 | 0.00 | 62 | 1003.6 |
| 20260505030014 | 72 | 192 | 0.9 | 1.7 | 0.00 | 0.00 | 0.00 | 62 | 1003.5 |
| 20260505025510 | 72 | 334 | 0.0 | 0.0 | 0.00 | 0.00 | 0.00 | 61 | 1003.5 |
| 20260505025009 | 72 | 18 | 0.0 | 0.9 | 0.00 | 0.00 | 0.00 | 61 | 1003.6 |
| 20260505024506 | 72 | 355 | 0.0 | 0.0 | 0.00 | 0.00 | 0.00 | 61 | 1003.6 |
| 20260505024003 | 72 | 331 | 0.0 | 0.0 | 0.00 | 0.00 | 0.00 | 60 | 1003.1 |
| 20260505023500 | 72 | 328 | 0.0 | 0.9 | 0.00 | 0.00 | 0.00 | 60 | 1003.3 |
| 20260505022957 | 72 | 345 | 0.0 | 0.0 | 0.00 | 0.00 | 0.00 | 60 | 1003.1 |
| 20260505022455 | 71 | 345 | 0.0 | 0.9 | 0.00 | 0.00 | 0.00 | 61 | 1003.0 |
| 20260505021952 | 71 | 352 | 0.0 | 0.0 | 0.00 | 0.00 | 0.00 | 60 | 1002.8 |
| 20260505021448 | 71 | 352 | 0.0 | 0.0 | 0.00 | 0.00 | 0.00 | 59 | 1002.8 |
| 20260505020944 | 71 | 352 | 0.0 | 0.0 | 0.00 | 0.00 | 0.00 | 58 | 1002.8 |
| 20260505020439 | 71 | 352 | 0.0 | 0.0 | 0.00 | 0.00 | 0.00 | 57 | 1002.7 |
| 20260505015936 | 71 | 352 | 0.0 | 0.0 | 0.00 | 0.00 | 0.00 | 56 | 1002.7 |
| 20260505015433 | 72 | 352 | 0.0 | 0.0 | 0.00 | 0.00 | 0.00 | 56 | 1002.8 |
| 20260505014931 | 72 | 351 | 0.0 | 0.0 | 0.00 | 0.00 | 0.00 | 55 | 1002.8 |
| 20260505014428 | 72 | 351 | 0.0 | 0.0 | 0.00 | 0.00 | 0.00 | 54 | 1002.6 |
| 20260505013925 | 72 | 351 | 0.0 | 0.0 | 0.00 | 0.00 | 0.00 | 54 | 1002.6 |
| 20260505013421 | 72 | 351 | 0.0 | 0.0 | 0.00 | 0.00 | 0.00 | 54 | 1002.4 |
| 20260505012919 | 73 | 351 | 0.0 | 0.0 | 0.00 | 0.00 | 0.00 | 53 | 1002.2 |
| 20260505012417 | 73 | 351 | 0.0 | 0.0 | 0.00 | 0.00 | 0.00 | 53 | 1002.4 |
| 20260505011913 | 74 | 352 | 0.0 | 0.0 | 0.00 | 0.00 | 0.00 | 52 | 1002.2 |
| 20260505011410 | 74 | 352 | 0.0 | 0.0 | 0.00 | 0.00 | 0.00 | 51 | 1002.3 |
| 20260505010906 | 75 | 352 | 0.0 | 0.0 | 0.00 | 0.00 | 0.00 | 51 | 1002.0 |
| 20260505010402 | 75 | 352 | 0.0 | 0.0 | 0.00 | 0.00 | 0.00 | 50 | 1002.0 |
| 20260505005858 | 76 | 352 | 0.0 | 0.0 | 0.00 | 0.00 | 0.00 | 49 | 1001.8 |
| 20260505005355 | 76 | 352 | 0.0 | 0.0 | 0.00 | 0.00 | 0.00 | 48 | 1001.8 |
| 20260505004853 | 77 | 352 | 0.0 | 0.0 | 0.00 | 0.00 | 0.00 | 47 | 1001.6 |
| 20260505004349 | 78 | 352 | 0.0 | 0.0 | 0.00 | 0.00 | 0.00 | 45 | 1001.8 |
| 20260505003846 | 78 | 353 | 0.0 | 0.0 | 0.00 | 0.00 | 0.00 | 45 | 1001.6 |
| 20260505003344 | 79 | 340 | 0.0 | 0.0 | 0.00 | 0.00 | 0.00 | 45 | 1001.6 |
| 20260505002839 | 79 | 343 | 0.0 | 0.0 | 0.00 | 0.00 | 0.00 | 45 | 1001.8 |
| 20260505002336 | 79 | 343 | 0.0 | 0.0 | 0.00 | 0.00 | 0.00 | 45 | 1001.6 |
| 20260505001835 | 80 | 344 | 0.0 | 0.0 | 0.00 | 0.00 | 0.00 | 45 | 1001.7 |
| 20260505001332 | 80 | 330 | 0.0 | 0.0 | 0.00 | 0.00 | 0.00 | 45 | 1001.7 |
| 20260505000829 | 79 | 330 | 0.0 | 0.0 | 0.00 | 0.00 | 0.00 | 43 | 1001.6 |
| 20260505000327 | 80 | 330 | 0.0 | 0.0 | 0.00 | 0.00 | 0.00 | 44 | 1001.6 |
| 20260504235823 | 80 | 330 | 0.0 | 0.0 | 0.00 | 0.00 | 0.00 | 43 | 1001.6 |
| 20260504235320 | 80 | 329 | 0.9 | 0.9 | 0.00 | 0.00 | 0.00 | 43 | 1001.8 |
| 20260504234817 | 80 | 340 | 0.0 | 0.0 | 0.00 | 0.00 | 0.00 | 43 | 1001.6 |
| 20260504234314 | 80 | 328 | 0.0 | 0.0 | 0.00 | 0.00 | 0.00 | 43 | 1001.9 |
| 20260504233811 | 80 | 333 | 0.0 | 0.0 | 0.00 | 0.00 | 0.00 | 43 | 1001.7 |
| 20260504233306 | 81 | 329 | 0.9 | 0.9 | 0.00 | 0.00 | 0.00 | 41 | 1001.5 |
| 20260504232803 | 81 | 337 | 0.0 | 0.0 | 0.00 | 0.00 | 0.00 | 41 | 1001.6 |
| 20260504232301 | 81 | 327 | 0.0 | 0.9 | 0.00 | 0.00 | 0.00 | 41 | 1001.7 |
| 20260504231757 | 81 | 142 | 0.9 | 1.7 | 0.00 | 0.00 | 0.00 | 42 | 1001.8 |
| 20260504231254 | 81 | 321 | 0.9 | 1.7 | 0.00 | 0.00 | 0.00 | 40 | 1001.9 |
| 20260504230750 | 81 | 353 | 0.9 | 0.9 | 0.00 | 0.00 | 0.00 | 41 | 1001.8 |
| 20260504230248 | 81 | 51 | 0.0 | 0.9 | 0.00 | 0.00 | 0.00 | 40 | 1001.8 |
| 20260504225747 | 81 | 334 | 0.0 | 0.9 | 0.00 | 0.00 | 0.00 | 41 | 1001.6 |
| 20260504225242 | 81 | 325 | 0.9 | 0.9 | 0.00 | 0.00 | 0.00 | 41 | 1001.4 |
| 20260504224740 | 82 | 232 | 1.7 | 2.6 | 0.00 | 0.00 | 0.00 | 41 | 1001.6 |
| 20260504224237 | 82 | 352 | 0.9 | 0.9 | 0.00 | 0.00 | 0.00 | 40 | 1001.8 |
| 20260504223733 | 82 | 257 | 1.7 | 2.6 | 0.00 | 0.00 | 0.00 | 40 | 1001.8 |
| 20260504223229 | 82 | 340 | 0.0 | 0.0 | 0.00 | 0.00 | 0.00 | 39 | 1001.7 |
| 20260504222726 | 83 | 305 | 0.9 | 1.7 | 0.00 | 0.00 | 0.00 | 38 | 1001.6 |
| 20260504222223 | 84 | 351 | 0.0 | 0.0 | 0.00 | 0.00 | 0.00 | 37 | 1001.6 |
| 20260504221720 | 84 | 336 | 0.9 | 1.7 | 0.00 | 0.00 | 0.00 | 38 | 1001.9 |
| 20260504221217 | 84 | 0 | 0.0 | 0.9 | 0.00 | 0.00 | 0.00 | 38 | 1002.0 |
| 20260504220714 | 83 | 340 | 0.9 | 1.7 | 0.00 | 0.00 | 0.00 | 40 | 1001.9 |
| 20260504220211 | 82 | 324 | 0.9 | 1.7 | 0.00 | 0.00 | 0.00 | 40 | 1001.9 |
| 20260504215708 | 82 | 331 | 0.0 | 0.0 | 0.00 | 0.00 | 0.00 | 39 | 1002.1 |
| 20260504215205 | 82 | 289 | 0.9 | 1.7 | 0.00 | 0.00 | 0.00 | 39 | 1001.9 |
| 20260504214700 | 82 | 8 | 0.0 | 0.9 | 0.00 | 0.00 | 0.00 | 39 | 1002.0 |
| 20260504214157 | 82 | 316 | 1.7 | 1.7 | 0.00 | 0.00 | 0.00 | 38 | 1002.3 |
| 20260504213654 | 82 | 326 | 0.9 | 1.7 | 0.00 | 0.00 | 0.00 | 38 | 1002.1 |
| 20260504213151 | 83 | 346 | 0.9 | 1.7 | 0.00 | 0.00 | 0.00 | 38 | 1002.2 |
| 20260504212647 | 83 | 328 | 0.9 | 0.9 | 0.00 | 0.00 | 0.00 | 36 | 1002.2 |
| 20260504212144 | 82 | 279 | 0.0 | 0.9 | 0.00 | 0.00 | 0.00 | 38 | 1002.0 |
| 20260504211641 | 82 | 345 | 0.0 | 0.0 | 0.00 | 0.00 | 0.00 | 40 | 1002.2 |
| 20260504211137 | 81 | 133 | 1.7 | 1.7 | 0.00 | 0.00 | 0.00 | 40 | 1002.4 |
| 20260504210636 | 81 | 40 | 0.9 | 1.7 | 0.00 | 0.00 | 0.00 | 39 | 1002.3 |
| 20260504210131 | 81 | 161 | 1.7 | 1.7 | 0.00 | 0.00 | 0.00 | 38 | 1002.3 |
| 20260504205629 | 82 | 301 | 0.9 | 1.7 | 0.00 | 0.00 | 0.00 | 39 | 1002.4 |
| 20260504205126 | 82 | 340 | 0.0 | 0.9 | 0.00 | 0.00 | 0.00 | 38 | 1002.5 |
| 20260504204625 | 84 | 311 | 1.7 | 2.6 | 0.00 | 0.00 | 0.00 | 39 | 1002.3 |
| 20260504204123 | 84 | 25 | 0.9 | 1.7 | 0.00 | 0.00 | 0.00 | 37 | 1002.4 |
| 20260504203622 | 84 | 277 | 1.7 | 1.7 | 0.00 | 0.00 | 0.00 | 38 | 1002.6 |
| 20260504203120 | 84 | 36 | 0.9 | 1.7 | 0.00 | 0.00 | 0.00 | 39 | 1002.5 |
| 20260504202619 | 84 | 264 | 1.7 | 2.6 | 0.00 | 0.00 | 0.00 | 38 | 1002.6 |
| 20260504202117 | 85 | 290 | 0.9 | 1.7 | 0.00 | 0.00 | 0.00 | 36 | 1002.4 |
| 20260504201613 | 86 | 334 | 0.9 | 1.7 | 0.00 | 0.00 | 0.00 | 37 | 1002.5 |
| 20260504201111 | 85 | 221 | 1.7 | 1.7 | 0.00 | 0.00 | 0.00 | 37 | 1002.3 |
| 20260504200608 | 85 | 175 | 1.7 | 3.5 | 0.00 | 0.00 | 0.00 | 36 | 1002.8 |
| 20260504200104 | 85 | 299 | 1.7 | 2.6 | 0.00 | 0.00 | 0.00 | 36 | 1002.6 |
| 20260504195600 | 85 | 170 | 2.6 | 2.6 | 0.00 | 0.00 | 0.00 | 37 | 1002.7 |
| 20260504195057 | 84 | 181 | 1.7 | 2.6 | 0.00 | 0.00 | 0.00 | 37 | 1002.5 |
| 20260504194554 | 84 | 264 | 0.9 | 0.9 | 0.00 | 0.00 | 0.00 | 38 | 1002.5 |
| 20260504194049 | 85 | 174 | 0.9 | 1.7 | 0.00 | 0.00 | 0.00 | 37 | 1002.6 |
| 20260504193546 | 85 | 161 | 1.7 | 2.6 | 0.00 | 0.00 | 0.00 | 38 | 1002.6 |
| 20260504193045 | 85 | 306 | 0.9 | 0.9 | 0.00 | 0.00 | 0.00 | 37 | 1002.8 |
| 20260504192543 | 85 | 277 | 1.7 | 1.7 | 0.00 | 0.00 | 0.00 | 38 | 1002.5 |
| 20260504192040 | 85 | 47 | 0.0 | 0.9 | 0.00 | 0.00 | 0.00 | 39 | 1002.6 |
| 20260504191538 | 85 | 340 | 2.6 | 3.5 | 0.00 | 0.00 | 0.00 | 37 | 1002.5 |
| 20260504191034 | 84 | 343 | 0.9 | 1.7 | 0.00 | 0.00 | 0.00 | 36 | 1002.6 |
| 20260504190531 | 84 | 356 | 0.0 | 0.0 | 0.00 | 0.00 | 0.00 | 37 | 1003.0 |
| 20260504190026 | 83 | 333 | 0.0 | 0.9 | 0.00 | 0.00 | 0.00 | 37 | 1002.9 |
| 20260504185524 | 83 | 115 | 1.7 | 1.7 | 0.00 | 0.00 | 0.00 | 38 | 1002.8 |
| 20260504185020 | 84 | 240 | 1.7 | 1.7 | 0.00 | 0.00 | 0.00 | 37 | 1002.8 |
| 20260504184515 | 83 | 313 | 0.9 | 0.9 | 0.00 | 0.00 | 0.00 | 39 | 1002.8 |
| 20260504184011 | 83 | 26 | 0.9 | 0.9 | 0.00 | 0.00 | 0.00 | 40 | 1002.9 |
| 20260504183509 | 83 | 311 | 0.9 | 0.9 | 0.00 | 0.00 | 0.00 | 37 | 1003.1 |
| 20260504183007 | 83 | 285 | 1.7 | 1.7 | 0.00 | 0.00 | 0.00 | 37 | 1003.1 |
| 20260504182503 | 82 | 325 | 0.0 | 0.9 | 0.00 | 0.00 | 0.00 | 37 | 1003.1 |
| 20260504182000 | 82 | 151 | 1.7 | 1.7 | 0.00 | 0.00 | 0.00 | 38 | 1003.0 |
| 20260504181457 | 82 | 280 | 0.9 | 1.7 | 0.00 | 0.00 | 0.00 | 38 | 1003.4 |
| 20260504180956 | 82 | 187 | 1.7 | 1.7 | 0.00 | 0.00 | 0.00 | 38 | 1003.3 |
| 20260504180455 | 82 | 165 | 1.7 | 2.6 | 0.00 | 0.00 | 0.00 | 38 | 1003.3 |
| 20260504175953 | 81 | 341 | 0.9 | 2.6 | 0.00 | 0.00 | 0.00 | 38 | 1003.5 |
| 20260504175449 | 81 | 301 | 2.6 | 2.6 | 0.00 | 0.00 | 0.00 | 37 | 1003.5 |
| 20260504174947 | 82 | 31 | 0.9 | 0.9 | 0.00 | 0.00 | 0.00 | 40 | 1003.6 |
| 20260504174444 | 82 | 249 | 1.7 | 1.7 | 0.00 | 0.00 | 0.00 | 38 | 1003.4 |
| 20260504173942 | 82 | 331 | 0.0 | 0.9 | 0.00 | 0.00 | 0.00 | 38 | 1003.4 |
| 20260504173437 | 80 | 312 | 0.9 | 1.7 | 0.00 | 0.00 | 0.00 | 40 | 1003.5 |
| 20260504172936 | 80 | 65 | 1.7 | 3.5 | 0.00 | 0.00 | 0.00 | 37 | 1003.6 |
| 20260504172431 | 80 | 76 | 0.9 | 0.9 | 0.00 | 0.00 | 0.00 | 38 | 1003.7 |
| 20260504171928 | 80 | 345 | 0.0 | 0.9 | 0.00 | 0.00 | 0.00 | 39 | 1003.6 |
| 20260504171425 | 80 | 291 | 2.6 | 2.6 | 0.00 | 0.00 | 0.00 | 39 | 1003.7 |
| 20260504170922 | 79 | 42 | 0.9 | 0.9 | 0.00 | 0.00 | 0.00 | 39 | 1003.8 |
| 20260504170418 | 79 | 324 | 1.7 | 1.7 | 0.00 | 0.00 | 0.00 | 39 | 1003.8 |
| 20260504160337 | 78 | 352 | 0.9 | 1.7 | 0.00 | 0.00 | 0.00 | 39 | 1003.7 |
| 20260504150802 | 73 | 180 | 0.9 | 1.7 | 0.00 | 0.00 | 0.00 | 46 | 1004.1 |
| 20260504150259 | 73 | 264 | 0.9 | 0.9 | 0.00 | 0.00 | 0.00 | 45 | 1003.9 |